Location: Partizánske
(48.6285°N, 18.3769°E)
Time: 18:12:57
(UTC+02:00)

ISS - Visible Passes

Search period start: 19 July 2019 00:00
Search period end: 29 July 2019 00:00
Orbit: 409 x 418 km, 51.6° (Epoch: 20 July)

Date Brightness Start Highest point End Pass type
(mag) Time Alt. Az. Time Alt. Az. Time Alt. Az.
19 Jul -2.8 00:42:24 10° WNW 00:45:38 48° N 00:48:53 10° ENE visible
19 Jul -3.9 02:19:11 10° WNW 02:22:31 88° SSW 02:25:51 10° ESE visible
19 Jul -2.4 03:56:22 10° W 03:58:51 20° SW 04:01:20 10° S visible
19 Jul -3.9 22:16:03 10° WSW 22:19:24 82° SSE 22:22:45 10° ENE visible
19 Jul -2.8 23:53:00 10° W 23:56:16 48° N 23:59:30 10° ENE visible
20 Jul -3.6 01:29:52 10° WNW 01:33:12 70° NNE 01:36:32 10° ESE visible
20 Jul -2.8 03:06:45 10° W 03:11:55 15° SSE 03:12:40 10° SSE visible
20 Jul -3.7 21:26:50 10° SW 21:30:07 57° SSE 21:33:25 10° ENE visible
20 Jul -3.0 23:03:35 10° W 23:06:52 53° N 23:10:09 10° ENE visible
21 Jul -3.2 00:40:33 10° WNW 00:43:51 57° NNE 00:45:17 29° ENE visible
21 Jul -1.5 02:17:19 10° WNW 02:18:01 15° W 02:18:01 15° W visible
21 Jul -3.3 22:14:10 10° W 22:17:29 63° NNW 22:20:48 10° ENE visible
21 Jul -2.9 23:51:11 10° WNW 23:54:27 50° N 23:56:37 19° ENE visible
22 Jul -2.0 01:27:57 10° WNW 01:29:24 24° WNW 01:29:24 24° WNW visible
22 Jul -3.6 21:24:46 10° WSW 21:28:07 80° NNW 21:31:28 10° ENE visible
22 Jul -2.8 23:01:47 10° WNW 23:05:02 47° N 23:08:17 10° ENE visible
23 Jul -3.2 00:38:35 10° WNW 00:41:10 50° WNW 00:41:10 50° WNW visible
23 Jul -2.8 22:12:20 10° W 22:15:36 49° N 22:18:52 10° ENE visible
23 Jul -3.5 23:49:14 10° WNW 23:52:34 66° NNE 23:53:07 53° ENE visible
24 Jul -3.0 21:22:53 10° W 21:26:10 55° N 21:29:28 10° ENE visible
24 Jul -3.1 22:59:51 10° WNW 23:03:09 54° N 23:05:08 21° E visible
25 Jul -1.8 00:36:36 10° WNW 00:37:56 21° W 00:37:56 21° W visible
25 Jul -2.9 22:10:27 10° WNW 22:13:43 49° N 22:16:57 10° E visible
25 Jul -3.5 23:47:12 10° WNW 23:50:01 58° W 23:50:01 58° W visible
26 Jul -2.8 21:20:58 10° WNW 21:24:15 48° N 21:27:29 10° ENE visible
26 Jul -3.8 22:57:49 10° WNW 23:01:10 79° NNE 23:02:07 43° E visible
27 Jul -1.0 00:34:48 10° W 00:34:56 11° W 00:34:56 11° W visible
27 Jul -3.4 22:08:24 10° WNW 22:11:44 62° NNE 22:14:16 16° E visible
27 Jul -2.2 23:45:12 10° WNW 23:47:04 26° W 23:47:04 26° W visible
28 Jul -3.1 21:18:59 10° WNW 21:22:17 52° N 21:25:33 10° E visible
28 Jul -3.7 22:55:43 10° WNW 22:59:01 58° SSW 22:59:14 56° S visible
